User: anonymous   Login
Location: Lawrence Hall of Science
(37.8785°N, 122.2415°W)
Time: 03:46:55
(UTC-08:00)
Language:

ARGOS - Orbit

View from above orbital plane
View from above orbital plane
View from above satellite
View from above satellite

Ground track
Ground track

The orbit data is extracted from the following two-line orbital elements,

1 25634U 99008A   17058.15156968  .00000012  00000-0  25911-4 0  9993
2 25634  98.6337 123.8358 0010620 159.9073 200.2524 14.19305350932854
Epoch (UTC): 27 February 2017 03:38:15
Eccentricity: 0.0010620
inclination: 98.6337°
perigee height: 820 km
apogee height: 835 km
right ascension of ascending node: 123.8358°
argument of perigee: 159.9073°
revolutions per day: 14.19305350
mean anomaly at epoch: 200.2524°
orbit number at epoch: 93285

The dashed part of the orbit path shows where the satellite is in the earth's shadow,  

DLR